Location: Briis
(48.6240°N, 2.1211°E)
Time: 16:05:48
(UTC+00:00)

CZ-4C R/B - Pass Details

Date: 25 September 2020
Orbit: 627 x 1375 km, 63.4° (Epoch: 21 October)

Event Time Altitude Azimuth Distance (km) Brightness Sun altitude
Exits shadow 02:15:36 - 316° (NW) 3,163 5.2 -32.2°
Reaches altitude 10° 02:17:04 10° 323° (NW) 2,738 4.9 -32.0°
Maximum altitude 02:22:40 29° 22° (NNE) 1,922 4.5 -31.3°
Drops below altitude 10° 02:29:07 10° 79° (E) 3,190 5.9 -30.5°
Sets 02:32:36 0° 90° (E) 4,254 6.5 -30.1°
